{"data":{"norad_id":68694,"epoch":"2026-09-20T03:56:58.972416Z","epoch_age_seconds":92152,"freshness":"FRESH","line1":"1 68694U 26080D   26263.16457144  .00003677  00000+0  23687-3 0  9991","line2":"2 68694  97.6587 338.6079 0019397  99.9022 260.4397 15.08820761 23962","mean_motion":15.08820761,"eccentricity":0.0019397,"inclination_deg":97.6587,"raan_deg":338.6079,"arg_perigee_deg":99.9022,"mean_anomaly_deg":260.4397,"bstar":0.00023687,"rev_number":2396,"period_min":95.4387716037,"perigee_km":526.38346885775,"apogee_km":553.22092217283,"semimajor_km":6917.9391955153,"source":"CELESTRAK","updated_at":"2026-09-20T09:00:24.408941Z"}}